#timestamp,LO_Frequency,Hit,StdDev 
1587128415.6,286046999.9,N
1587128435.5,286047001.2,N
1587128455.3,286047000.7,N
1587128475.2,286046998.7,N
1587128495.9,286046998.3,N
1587128515.7,286046998.6,N
1587128535.6,286047000.9,N
1587128555.4,286046998.6,N
1587128575.2,286046998.2,N
1587128595.1,286047000.1,N
1587128596.0,286047000.1,N
1587128615.8,286046998.6,N
1587128635.7,286046999.3,N
1587128655.5,286046999.4,N
1587128675.3,286046996.8,N
1587128695.2,286046999.6,N
1587128715.0,286046996.6,N
1587128715.9,286046996.6,N
1587128735.8,286046999.5,N
1587128755.6,286046999.1,N
1587128775.4,286046998.6,N
1587128795.3,286046998.4,N
1587128815.1,286046998.1,N
1587128835.8,286046999.4,N
1587128855.7,286046998.6,N
1587128875.5,286046998.5,N
1587128895.4,286047001.1,N
1587128915.2,286047001.0,N
1587128935.0,286047000.9,N
1587128935.9,286047000.9,N
1587128955.8,286047000.2,N
1587128975.6,286046999.8,N
1587128995.5,286047000.3,N
1587129015.3,286047002.4,N
1587129035.1,286047002.6,N
1587129055.9,286047002.5,N
1587129075.7,286047001.8,N
1587129095.6,286047002.7,N
1587129115.4,286047000.1,N
1587129135.2,286047000.2,N
1587129155.1,286047002.7,N
1587129156.0,286047002.7,N
1587129175.8,286047002.8,N
1587129195.6,286047001.7,N
1587129215.5,286047001.6,N
1587129235.3,286047004.4,N
1587129255.2,286047003.9,N
1587129275.9,286047001.8,N
1587129295.7,286047001.3,N
1587129315.6,286047004.1,N
1587129335.4,286047003.7,N
1587129355.3,286047003.8,N
1587129375.1,286047001.5,N
1587129376.0,286047001.5,N
1587129395.8,286047004.3,N
1587129415.7,286047001.5,N
1587129435.5,286047001.8,N
1587129455.3,286047001.5,N
1587129475.2,286047004.1,Y
1587129495.0,286047001.8,P
1587129495.9,286047001.8,P
1587129515.8,286047002.5,P
1587129535.6,286047001.5,Y
1587129555.4,286047000.9,P
1587129575.3,286047001.0,N
1587129595.1,286047000.8,N
1587129615.9,286046998.5,Y
1587129635.7,286046997.3,P
1587129655.5,286046999.3,N
1587129675.4,286046999.0,N
1587129695.2,286046999.4,N
1587129715.1,286046998.7,N
1587129716.0,286046998.7,N
1587129735.8,286046997.4,N
1587129755.6,286046996.6,N
1587129775.5,286046997.1,N
1587129795.3,286046995.4,Y
1587129815.2,286046999.6,P
1587129835.9,286046999.0,N
1587129855.7,286046998.8,N
1587129875.6,286046999.1,N
1587129895.4,286046999.2,N
1587129915.2,286046999.3,N
1587129935.1,286046996.6,Y
1587129936.0,286046996.6,P
1587129955.8,286046998.2,N
1587129975.7,286047001.2,N
1587129995.5,286047001.0,N
1587130015.3,286047000.5,N
1587130035.2,286046999.8,N
1587130055.0,286046999.9,N
1587130055.9,286046999.9,N
1587130075.8,286047000.1,N
1587130095.6,286047002.8,N
1587130115.4,286047002.3,N
1587130135.3,286046999.8,N
1587130155.1,286047000.3,N
1587130175.8,286047000.4,N
1587130195.7,286047000.1,N
1587130215.5,286047002.2,N
1587130235.4,286047000.2,N
1587130255.2,286047002.1,N
1587130275.0,286047002.7,N
1587130275.9,286047002.7,N
1587130295.8,286047002.5,N
1587130315.6,286047000.2,N
1587130335.5,286046998.1,N
1587130355.3,286047001.2,N
1587130375.1,286047000.4,N
1587130395.9,286047002.6,N
1587130415.7,286047001.6,N
1587130435.6,286047002.4,N
1587130455.4,286047000.6,N
1587130475.2,286047002.7,N
1587130495.1,286047002.4,N
1587130496.0,286047002.4,N
1587130515.8,286047000.1,N
1587130535.6,286047001.8,N
1587130555.5,286047002.0,N
1587130575.3,286047002.5,N
1587130595.2,286047002.0,N
1587130615.9,286047002.1,N
1587130635.7,286047000.3,N
1587130655.6,286047002.4,N
1587130675.4,286047000.0,N
1587130695.2,286047002.4,N
1587130715.1,286046999.7,N
1587130716.0,286046999.7,N
1587130735.8,286047000.6,N
1587130755.7,286046999.9,N
1587130775.5,286047001.1,N
1587130795.3,286047000.8,N
1587130815.2,286047000.9,N
1587130835.0,286046998.7,N
1587130835.9,286046998.7,N
1587130855.8,286046998.5,N
1587130875.6,286046998.3,N
1587130895.4,286046998.9,N
1587130915.3,286046998.1,N
1587130935.1,286046998.1,N
1587130955.8,286047000.3,N
1587130975.7,286047000.7,N
1587130995.5,286046999.6,N
1587131015.4,286046996.9,N
1587131035.2,286046999.2,N
1587131055.0,286046998.1,N
1587131055.9,286046998.1,N
1587131075.8,286046999.3,N
1587131095.6,286046997.4,N
1587131115.5,286046998.0,N
1587131135.3,286046997.6,N
1587131155.1,286046997.7,N
1587131175.9,286046997.9,N
1587131195.7,286046997.1,N
1587131215.6,286046995.3,Y
1587131235.4,286046999.5,P
1587131255.2,286046999.6,N
1587131275.1,286046996.7,P
1587131276.0,286046996.7,N
1587131295.8,286047001.0,N
1587131315.6,286047000.6,N
1587131335.5,286047000.4,N
1587131355.3,286047000.5,N
1587131375.2,286047002.3,N
1587131395.9,286046999.8,N
1587131415.7,286047000.6,N
1587131435.6,286046998.1,N
1587131455.4,286046999.3,N
1587131475.2,286046997.1,N
1587131495.1,286046999.6,N
1587131496.0,286046999.6,N
1587131515.8,286046997.4,N
1587131535.7,286046997.6,N
1587131555.5,286046997.5,N
1587131575.3,286046997.6,N
1587131595.2,286046996.1,N
1587131615.0,286046995.2,N
1587131615.9,286046995.2,N
1587131635.8,286046995.8,N
1587131655.6,286046998.0,N
1587131675.4,286046996.8,N
1587131695.3,286046999.0,N
1587131715.1,286046999.4,N
1587131735.8,286046998.5,N
1587131755.7,286046998.1,N
1587131775.5,286047000.8,N
1587131795.4,286047000.8,N
1587131815.2,286047000.4,N
1587131835.0,286047000.0,N
1587131835.9,286047000.0,N
1587131855.8,286046998.3,N
1587131875.6,286046999.2,N
1587131895.5,286046999.0,N
1587131915.3,286046996.8,N
1587131935.1,286046999.6,N
1587131955.9,286046997.0,N
1587131975.7,286046996.5,N
1587131995.6,286046995.0,Y
